Probability
0 0 0 0 0 0 0 0 0 0 0 0 0 0 0 0 0 0 0 10 6 3 3 0 29 100 100 100 100 97 100 100 100 100 100 100 90 65 84 94 97 100 100
0 0 0 0 0 0 0 0 0 0 0 0 0 0 0 0 0 0 0 0 0 0 0 3 0 32 100 100 100 97 100 100 100 100 100 97 84 45 16 10 35 65 77
0 0 0 0 0 0 0 0 0 0 0 0 0 0 0 0 0 0 0 0 0 0 0 0 0 3 84 100 100 100 100 100 100 100 100 94 87 32 0 0 6 26 35
0 0 0 0 0 0 0 0 0 0 0 0 0 0 0 0 0 0 0 0 0 0 0 0 0 0 29 100 100 100 100 100 100 100 100 97 84 48 0 0 3 3 16
0 0 0 0 0 0 0 0 0 0 0 0 0 0 0 0 0 0 0 0 0 0 6 0 0 3 48 94 100 100 100 100 100 100 100 100 94 71 32 0 0 3 3
0 0 0 0 0 0 0 0 0 0 0 0 0 0 0 0 0 0 0 0 0 0 6 13 13 35 52 94 100 100 100 100 100 100 100 100 100 100 97 42 3 0 0
0 0 0 0 0 0 0 0 0 0 0 0 0 0 0 0 0 0 0 0 0 0 0 19 26 26 42 87 100 100 100 100 100 100 100 100 100 100 100 71 16 13 0
0 0 0 0 0 0 0 0 0 0 0 0 0 0 0 0 0 0 0 0 0 0 0 0 29 10 13 42 52 100 100 100 100 100 100 100 100 100 100 97 71 19 0
0 0 0 0 0 0 0 0 0 0 0 0 0 0 0 0 0 0 0 0 0 0 0 0 0 0 6 19 35 71 97 100 100 100 100 100 100 100 100 100 94 26 3
0 0 0 0 0 0 0 0 0 0 0 0 0 0 0 0 0 0 0 0 0 0 0 0 0 0 0 0 3 6 0 32 97 100 100 100 100 100 100 100 90 48 39
0 0 0 0 0 0 0 0 0 0 0 0 0 0 0 0 0 0 0 0 0 0 0 0 0 0 0 0 6 6 0 0 87 100 100 100 100 100 100 100 97 81 81
0 0 0 0 0 0 0 0 0 0 0 0 0 0 0 0 0 0 0 0 0 0 0 0 0 0 0 0 0 0 0 0 6 87 100 100 100 100 100 100 100 81 71
0 0 0 0 0 0 0 0 0 0 0 0 0 0 0 0 0 0 0 0 0 0 0 0 0 0 0 0 0 0 0 0 0 6 42 74 100 100 100 77 52 32 3
0 0 0 0 0 0 0 0 0 0 0 0 0 0 0 0 0 0 0 0 0 0 0 0 0 0 0 0 0 0 0 0 0 0 0 0 0 3 35 0 0 0 0
0 0 0 0 0 0 0 0 0 0 0 0 0 0 0 0 0 0 0 0 0 0 0 0 0 0 0 0 0 0 0 0 0 0 0 0 0 0 0 0 0 0 0
0 0 0 0 0 0 0 0 0 0 0 0 0 0 0 0 0 0 0 0 0 0 0 0 0 0 0 0 0 0 0 0 0 0 0 0 0 0 0 0 0 0 0
0 0 0 0 0 0 0 0 0 0 0 0 0 0 0 0 0 0 0 0 0 0 0 0 0 0 0 0 0 0 0 0 0 0 0 0 0 0 0 0 0 0 0
0 0 0 0 0 0 0 0 0 0 0 0 0 0 0 0 0 0 0 0 0 0 0 0 0 0 0 0 0 0 0 0 0 0 0 0 0 0 0 0 0 0 0
0 0 0 0 0 0 0 0 0 0 0 0 0 0 0 0 0 0 0 0 0 0 0 0 0 0 0 0 0 0 0 0 0 0 0 0 0 0 0 0 0 0 0
0 0 0 0 0 0 0 0 0 0 0 0 0 0 0 0 0 0 0 0 0 0 0 0 0 0 0 0 0 0 0 0 0 0 0 0 0 0 0 0 0 0 0
0 0 0 0 0 0 0 0 0 0 0 0 0 0 0 0 0 0 0 0 0 0 0 0 0 0 0 0 0 0 0 0 0 0 0 0 0 0 0 0 0 0 0
0 0 0 0 0 0 0 0 0 0 0 0 0 0 0 0 0 0 0 0 0 0 0 0 0 0 0 0 0 0 0 0 0 0 0 0 0 0 0 0 0 0 0
0 0 0 0 0 0 0 0 0 0 0 0 0 0 0 0 0 0 0 0 0 0 0 0 0 0 0 0 0 0 0 0 0 0 0 0 0 0 0 0 0 0 0
0 0 0 0 0 0 0 0 0 0 0 0 0 0 0 0 0 0 0 0 0 0 0 0 0 0 0 0 0 0 0 0 0 0 0 0 0 0 0 0 0 0 0
0 0 0 0 0 0 0 0 0 0 0 0 0 0 0 0 0 0 0 0 0 0 0 0 0 0 0 0 0 0 0 0 0 0 0 0 0 0 0 0 0 0 0
0 0 0 0 0 0 0 0 0 0 0 0 0 0 0 0 0 0 0 0 0 0 0 0 0 0 0 0 0 0 0 0 0 0 0 0 0 0 0 0 0 0 0
Height
5725 5725 5725 5725 5726 5727 5727 5729 5732 5735 5738 5741 5744 5747 5751 5754 5757 5762 5767 5772 5775 5779 5782 5785 5788 5793 5796 5800 5804 5807 5809 5813 5817 5819 5822 5825 5829 5832 5835 5837 5841 5844 5847
5706 5706 5705 5706 5707 5709 5711 5713 5715 5718 5722 5726 5730 5733 5737 5740 5744 5748 5753 5758 5763 5768 5772 5775 5779 5784 5788 5792 5796 5799 5801 5805 5809 5812 5814 5818 5822 5826 5830 5833 5836 5839 5843
5683 5684 5684 5685 5687 5689 5691 5695 5698 5702 5705 5709 5714 5719 5723 5728 5731 5735 5740 5745 5750 5755 5761 5765 5769 5773 5778 5783 5787 5790 5791 5795 5799 5803 5807 5811 5815 5819 5824 5828 5832 5835 5838
5655 5657 5659 5662 5665 5668 5671 5675 5678 5683 5688 5693 5698 5702 5707 5713 5718 5722 5727 5733 5737 5742 5748 5753 5758 5762 5768 5773 5778 5782 5782 5786 5790 5794 5798 5803 5808 5812 5817 5822 5826 5829 5832
5625 5628 5631 5636 5641 5646 5650 5654 5659 5663 5669 5674 5680 5686 5692 5697 5702 5707 5714 5720 5725 5730 5735 5741 5746 5751 5756 5762 5767 5771 5773 5776 5780 5784 5789 5794 5799 5804 5809 5814 5819 5822 5826
5596 5599 5601 5606 5613 5620 5626 5631 5637 5643 5649 5655 5661 5668 5675 5681 5687 5692 5699 5705 5711 5716 5722 5728 5734 5739 5744 5750 5756 5760 5763 5766 5770 5776 5780 5785 5790 5796 5801 5806 5811 5815 5819
5568 5568 5572 5577 5582 5590 5598 5605 5612 5620 5628 5634 5642 5649 5656 5663 5669 5676 5683 5689 5696 5702 5708 5714 5720 5727 5733 5738 5744 5749 5753 5756 5761 5766 5771 5777 5782 5787 5792 5797 5802 5807 5812
5549 5545 5543 5545 5550 5559 5569 5577 5586 5596 5606 5613 5622 5630 5639 5646 5653 5658 5665 5673 5680 5686 5693 5699 5706 5713 5719 5726 5732 5738 5743 5747 5753 5758 5762 5767 5773 5778 5783 5788 5793 5797 5802
5530 5525 5521 5519 5521 5527 5538 5549 5559 5569 5581 5592 5600 5609 5619 5628 5633 5642 5649 5656 5664 5671 5678 5685 5691 5698 5705 5712 5719 5726 5732 5737 5743 5749 5755 5759 5763 5768 5773 5778 5783 5788 5792
5514 5507 5501 5497 5495 5498 5506 5518 5530 5542 5555 5567 5578 5587 5598 5607 5614 5624 5632 5640 5647 5655 5662 5669 5676 5683 5690 5697 5705 5712 5719 5725 5731 5737 5744 5749 5754 5758 5764 5769 5774 5778 5783
5500 5492 5486 5481 5477 5476 5480 5489 5501 5514 5528 5542 5555 5565 5575 5585 5594 5604 5614 5623 5630 5638 5645 5652 5660 5668 5675 5682 5690 5698 5705 5711 5718 5725 5732 5738 5742 5748 5753 5759 5764 5768 5772
5487 5480 5474 5469 5465 5463 5464 5469 5478 5490 5503 5517 5531 5542 5552 5563 5573 5583 5593 5604 5612 5620 5627 5635 5644 5652 5660 5667 5676 5683 5690 5697 5704 5712 5719 5726 5731 5738 5743 5747 5753 5757 5761
5474 5470 5464 5459 5456 5454 5453 5457 5464 5471 5481 5493 5506 5518 5530 5542 5551 5561 5571 5582 5592 5602 5610 5619 5627 5635 5644 5652 5661 5668 5676 5683 5691 5699 5706 5713 5720 5726 5733 5737 5741 5745 5750
5460 5458 5455 5450 5447 5445 5445 5447 5452 5459 5465 5474 5485 5496 5508 5520 5530 5540 5549 5560 5571 5582 5592 5602 5610 5619 5628 5636 5645 5653 5661 5669 5678 5686 5693 5701 5708 5714 5720 5726 5730 5735 5739
5444 5443 5443 5440 5438 5436 5437 5439 5442 5446 5453 5459 5467 5476 5487 5498 5509 5519 5528 5538 5549 5560 5573 5585 5594 5602 5611 5621 5629 5637 5646 5655 5664 5672 5680 5688 5695 5701 5706 5712 5718 5721 5728
5429 5427 5427 5428 5427 5426 5427 5429 5433 5436 5441 5446 5453 5460 5469 5478 5488 5498 5507 5517 5526 5539 5553 5567 5576 5585 5594 5603 5612 5621 5630 5639 5648 5657 5666 5673 5681 5688 5693 5698 5704 5709 5715
5414 5412 5411 5412 5415 5416 5417 5419 5422 5426 5430 5435 5441 5447 5454 5461 5470 5477 5486 5496 5506 5518 5534 5547 5557 5569 5579 5587 5597 5605 5614 5622 5632 5641 5650 5658 5666 5673 5678 5684 5688 5695 5703
5400 5396 5395 5396 5399 5402 5404 5407 5411 5415 5420 5425 5430 5436 5441 5448 5455 5461 5468 5476 5486 5499 5512 5525 5537 5550 5561 5571 5580 5588 5597 5606 5616 5626 5635 5643 5650 5656 5663 5669 5675 5681 5688
5386 5381 5379 5379 5382 5384 5389 5394 5399 5404 5409 5413 5419 5424 5430 5436 5443 5448 5455 5462 5469 5478 5490 5505 5517 5530 5542 5553 5563 5571 5580 5589 5599 5609 5618 5627 5634 5641 5647 5654 5660 5667 5672
5372 5368 5366 5365 5365 5366 5371 5379 5386 5391 5396 5402 5408 5413 5419 5425 5430 5436 5443 5449 5454 5462 5472 5486 5498 5509 5521 5534 5545 5554 5563 5573 5584 5593 5602 5610 5616 5623 5632 5639 5647 5653 5658
5361 5356 5354 5353 5352 5351 5354 5362 5369 5377 5384 5390 5396 5401 5406 5412 5417 5423 5427 5432 5439 5446 5455 5468 5480 5491 5500 5514 5527 5538 5548 5557 5567 5575 5584 5593 5601 5608 5616 5623 5629 5636 5643
5352 5346 5343 5341 5339 5338 5340 5346 5354 5362 5370 5376 5381 5387 5392 5399 5405 5408 5412 5417 5421 5431 5445 5453 5464 5475 5484 5496 5511 5523 5534 5543 5553 5560 5567 5575 5583 5592 5597 5606 5614 5621 5628
5343 5336 5332 5330 5328 5326 5328 5333 5341 5349 5357 5362 5367 5374 5380 5386 5391 5394 5398 5404 5410 5420 5432 5442 5452 5458 5470 5483 5499 5511 5518 5526 5537 5545 5553 5559 5568 5576 5583 5591 5597 5605 5612
5333 5326 5321 5319 5317 5315 5317 5323 5329 5338 5343 5348 5356 5363 5369 5374 5379 5385 5391 5396 5402 5411 5420 5431 5443 5448 5461 5471 5484 5496 5503 5508 5522 5530 5536 5544 5551 5560 5569 5576 5583 5589 5595
5321 5313 5309 5307 5306 5305 5305 5309 5314 5323 5329 5335 5344 5353 5359 5365 5370 5375 5381 5388 5395 5403 5412 5420 5431 5441 5451 5463 5473 5481 5487 5494 5504 5514 5523 5531 5537 5546 5553 5560 5566 5574 5581
5305 5300 5297 5296 5295 5295 5294 5295 5300 5309 5316 5324 5333 5341 5347 5354 5361 5368 5375 5382 5388 5395 5403 5412 5420 5430 5440 5449 5458 5466 5474 5483 5492 5501 5511 5518 5525 5534 5539 5545 5552 5559 5565
Wind_Speed
66 66 65 63 63 62 60 58 57 57 57 57 56 54 52 52 53 54 54 54 53 52 50 49 46 42 39 36 38 40 41 38 36 33 31 29 28 27 26 25 24 23 22
71 69 68 68 67 66 65 64 63 62 61 59 58 56 55 55 55 55 55 56 56 54 53 51 49 45 43 39 38 40 43 43 41 38 35 33 30 28 26 24 23 23 24
78 76 72 70 71 71 69 68 68 67 66 65 62 59 57 57 57 56 56 56 57 56 55 54 52 50 47 45 41 42 45 46 46 42 39 36 34 31 29 27 25 23 23
82 81 80 76 74 74 74 72 70 69 69 69 67 65 61 59 60 59 58 57 58 58 57 57 56 54 52 49 47 44 48 48 49 47 43 39 37 35 33 31 29 27 25
85 84 83 83 82 79 78 76 74 71 70 70 70 69 66 63 62 63 62 60 59 59 59 58 58 57 55 53 51 49 50 49 49 51 47 43 40 38 36 35 33 31 30
82 88 87 85 86 86 84 82 80 77 73 71 71 71 70 68 66 66 65 64 63 61 60 59 59 59 57 55 53 53 52 51 48 49 49 46 43 42 40 39 37 35 33
60 76 90 91 89 89 88 86 85 82 79 74 73 72 70 69 68 68 67 66 66 65 63 62 60 60 59 57 55 55 54 51 50 46 43 45 45 44 42 41 39 38 36
51 56 68 86 95 93 92 91 88 85 81 79 76 74 72 70 69 69 68 68 68 67 67 65 64 63 62 60 58 57 55 54 51 50 48 44 44 46 45 44 42 40 39
49 50 55 66 84 96 96 94 92 90 85 81 79 77 75 72 71 71 69 68 68 69 69 68 67 66 65 64 62 60 59 58 56 54 52 49 45 46 45 45 45 44 42
47 49 49 50 63 81 93 97 96 94 91 86 82 81 80 77 75 73 72 70 69 70 70 71 70 69 68 67 66 65 63 62 61 59 56 54 52 50 46 44 44 43 42
44 44 43 43 45 59 73 85 94 95 94 91 86 84 84 81 78 76 73 72 70 70 71 71 71 71 71 71 69 67 67 66 65 63 61 59 56 51 47 44 43 42 43
40 39 39 38 38 41 51 63 75 86 91 92 90 88 87 86 83 80 78 74 73 72 72 72 71 71 70 71 70 70 69 68 67 66 64 61 59 54 51 48 45 45 46
38 35 35 36 35 34 36 46 56 65 78 86 89 88 88 88 86 84 84 80 76 74 75 75 73 72 71 71 69 69 69 68 66 64 63 61 59 57 54 52 50 49 48
40 35 32 33 33 33 32 34 40 49 57 68 78 84 86 87 87 86 86 85 82 79 77 76 76 75 73 72 71 70 69 67 65 63 62 61 60 59 58 56 55 53 51
40 38 34 30 31 32 32 31 33 37 43 51 58 68 77 82 86 87 89 89 86 84 82 79 74 74 75 73 73 73 72 70 68 65 62 61 61 61 62 61 59 59 55
39 40 39 34 32 33 34 34 34 36 37 40 45 53 62 70 77 81 85 87 88 87 85 82 78 74 74 75 73 72 73 73 71 69 67 65 63 62 63 63 63 62 59
41 39 40 40 37 35 35 37 35 35 36 37 38 41 48 54 62 71 77 81 84 86 85 82 81 79 75 76 74 71 72 73 72 70 69 69 68 67 67 66 66 64 62
43 41 39 41 42 41 38 37 36 34 36 37 37 37 40 42 45 51 60 71 79 83 84 81 79 80 78 78 76 73 72 71 71 68 68 68 69 69 69 69 67 66 66
41 40 38 38 41 44 44 41 38 37 38 38 39 38 38 39 39 41 47 55 65 75 82 83 80 79 79 79 78 78 77 74 73 71 70 68 69 71 72 72 71 70 70
38 34 34 34 36 42 47 45 44 42 41 40 40 42 42 41 42 42 43 47 53 61 69 77 77 77 83 82 76 74 76 77 76 74 73 71 72 73 72 70 73 75 75
35 30 28 29 31 36 45 46 46 45 44 44 44 43 44 43 42 43 46 48 50 56 59 65 69 66 75 78 76 69 68 69 73 73 75 74 73 76 75 71 70 71 73
34 29 26 25 27 32 38 45 47 46 45 45 45 44 44 42 41 45 49 48 47 53 51 54 69 69 67 69 71 70 69 69 71 73 74 75 75 72 74 76 73 71 71
37 32 27 23 24 30 33 39 44 44 42 42 42 42 41 40 39 35 35 36 38 49 48 49 53 61 63 65 65 66 70 76 75 72 72 72 74 73 74 74 71 69 70
42 33 28 23 22 28 31 33 38 38 40 40 40 40 37 35 36 35 39 40 39 47 51 56 55 56 57 56 63 64 58 64 72 72 70 68 69 69 70 71 72 74 73
44 34 26 22 21 25 29 31 35 38 40 42 42 40 38 38 36 41 46 40 39 48 53 56 55 58 58 60 55 52 55 63 66 69 70 70 69 67 68 68 68 69 69
41 30 23 20 19 21 26 30 35 38 42 43 44 44 45 46 40 40 41 37 38 44 51 54 50 52 49 47 54 62 59 57 60 60 59 61 64 62 59 64 68 68 67
Wind_Direction
267 265 263 259 256 252 249 247 246 247 248 247 246 244 244 244 242 240 236 235 236 236 236 238 239 238 237 234 233 233 232 228 225 222 220 219 218 219 220 220 217 215 215
265 263 261 259 256 253 251 249 247 246 247 248 248 248 244 242 240 239 236 233 234 236 236 237 238 237 237 234 232 233 235 227 225 223 221 219 219 219 219 219 218 217 219
264 261 258 256 255 253 250 249 248 247 246 246 246 246 247 245 241 238 237 234 232 234 235 236 237 237 237 237 235 234 236 230 225 223 221 220 220 220 221 222 220 219 221
262 260 258 255 252 251 250 248 247 247 246 246 245 243 241 240 240 239 237 236 233 233 234 235 236 238 237 237 237 236 236 240 227 220 219 219 220 221 223 224 224 225 228
259 258 255 254 253 250 249 248 247 246 245 245 245 243 241 239 237 236 236 236 235 234 234 235 236 238 238 237 237 236 236 242 233 220 217 218 220 222 224 226 228 230 233
259 256 255 252 250 250 249 249 248 247 245 243 242 242 242 239 238 236 235 235 235 234 234 235 236 237 238 237 236 236 237 240 239 227 218 219 222 225 227 230 232 235 236
270 259 253 253 250 247 246 247 247 247 244 242 241 240 239 239 237 237 236 235 235 235 234 234 235 236 236 237 235 235 236 237 241 241 232 225 225 228 230 232 235 236 237
283 271 259 252 249 247 245 244 244 244 243 242 240 239 237 236 236 235 235 235 234 235 234 233 233 234 235 236 235 234 235 237 237 240 243 239 231 232 233 235 236 237 239
291 285 273 259 248 245 244 243 241 241 240 239 239 238 236 235 235 235 235 235 235 235 235 234 233 233 234 236 236 235 235 236 236 236 238 241 241 241 238 236 236 237 238
293 291 286 277 258 246 242 241 241 240 239 238 237 237 237 235 233 233 234 234 234 235 235 235 234 233 234 235 236 236 236 236 236 236 236 239 240 241 240 237 234 233 235
296 293 290 285 275 257 246 240 239 238 238 238 237 236 236 236 236 235 233 233 233 234 235 235 235 234 234 235 235 235 236 237 237 237 238 239 239 238 238 236 233 234 237
293 294 289 285 279 269 257 245 237 236 236 237 237 237 237 237 238 238 236 234 234 234 234 235 236 236 235 235 236 236 236 236 236 237 238 238 239 238 238 239 238 238 239
288 288 287 281 276 268 260 250 240 236 234 234 236 238 238 238 239 240 240 238 237 235 235 235 235 235 236 236 236 237 237 237 236 236 236 237 237 238 238 240 240 241 244
283 281 281 279 272 265 257 248 243 238 236 236 235 237 239 240 241 242 242 242 240 238 236 235 235 235 236 236 236 236 237 237 237 236 236 236 236 238 239 240 241 242 244
283 277 272 272 268 261 255 247 240 237 234 234 235 237 239 241 243 245 245 244 244 242 238 235 234 235 236 236 237 237 237 237 237 237 236 237 236 237 240 240 241 242 243
290 279 270 263 260 257 251 246 246 239 232 228 229 234 238 240 242 244 245 246 245 244 240 237 235 234 236 236 236 237 237 237 237 238 238 238 238 238 240 241 240 241 240
296 284 271 262 256 251 247 245 246 241 234 229 226 229 233 236 239 239 240 241 242 242 242 238 236 235 235 236 236 236 237 238 237 237 238 239 239 239 240 241 242 240 240
296 289 278 264 255 250 245 241 239 237 233 231 229 228 228 230 234 238 239 239 239 239 239 239 237 237 236 236 236 236 235 237 237 236 237 238 238 238 239 239 240 240 239
299 288 280 270 258 249 243 239 237 235 232 232 231 231 231 230 231 235 236 237 237 236 235 235 234 235 234 235 236 236 237 236 235 235 236 237 238 238 238 238 238 238 238
308 293 281 273 263 253 243 237 236 235 233 232 232 232 232 233 236 238 239 239 240 237 234 232 230 231 233 232 231 232 234 235 235 235 235 236 237 238 239 240 241 243 243
314 303 289 276 266 257 246 238 235 233 232 232 234 236 235 236 240 243 246 246 245 234 229 226 219 219 226 228 227 224 225 228 231 231 232 233 236 239 239 238 238 240 243
321 313 300 286 268 259 250 240 235 233 231 230 231 234 235 237 240 247 250 249 240 224 216 217 214 216 221 224 225 224 220 219 222 226 230 232 232 232 238 242 240 238 238
325 315 305 291 273 259 251 243 236 233 231 228 227 229 233 238 245 247 235 223 220 208 205 204 209 216 219 219 218 216 219 222 223 224 226 230 233 234 236 241 243 242 241
331 318 304 291 273 261 253 242 235 228 226 222 220 223 227 230 227 216 206 204 203 207 208 204 199 200 208 214 216 216 213 221 227 225 226 229 231 233 235 238 238 239 243
329 319 307 291 271 260 255 244 229 220 218 218 214 214 217 211 211 212 209 211 208 202 209 204 201 200 209 205 208 206 215 224 227 228 229 232 233 235 237 239 240 240 242
326 315 306 290 270 256 254 247 230 216 214 215 212 209 211 210 212 210 215 220 217 209 206 213 219 215 208 208 205 203 208 217 222 222 222 226 230 231 234 237 239 240 242